TimeCST,TemperatureF,Dew PointF,Humidity,Sea Level PressureIn,VisibilityMPH,Wind Direction,Wind SpeedMPH,Gust SpeedMPH,PrecipitationIn,Events,Conditions,WindDirDegrees,DateUTC
12:56 AM,64.9,62.1,90,30.18,10.0,ENE,5.8,-,N/A,,Overcast,70,2013-11-22 06:56:00
1:56 AM,64.0,62.1,93,30.18,10.0,ENE,4.6,-,N/A,,Overcast,60,2013-11-22 07:56:00
2:56 AM,63.0,62.1,97,30.17,9.0,ENE,5.8,-,N/A,,Overcast,70,2013-11-22 08:56:00
3:27 AM,63.0,62.1,97,30.20,9.0,ENE,4.6,-,N/A,,Overcast,60,2013-11-22 09:27:00
3:56 AM,63.0,62.1,97,30.17,9.0,East,3.5,-,N/A,,Overcast,80,2013-11-22 09:56:00
4:32 AM,63.0,62.1,97,30.21,9.0,ENE,3.5,-,N/A,,Overcast,70,2013-11-22 10:32:00
4:56 AM,63.0,62.1,97,30.17,9.0,NE,4.6,-,N/A,,Overcast,50,2013-11-22 10:56:00
5:56 AM,63.0,62.1,97,30.19,7.0,NE,4.6,-,N/A,,Overcast,40,2013-11-22 11:56:00
6:35 AM,62.1,62.1,100,30.25,2.5,ENE,5.8,-,N/A,,Overcast,60,2013-11-22 12:35:00
6:56 AM,62.1,62.1,100,30.21,1.5,ENE,5.8,-,N/A,,Overcast,70,2013-11-22 12:56:00
7:20 AM,62.1,62.1,100,30.25,2.5,ENE,3.5,-,N/A,,Overcast,60,2013-11-22 13:20:00
7:30 AM,62.1,62.1,100,30.24,4.0,East,5.8,-,N/A,,Overcast,90,2013-11-22 13:30:00
7:56 AM,63.0,63.0,100,30.21,7.0,East,6.9,-,N/A,,Overcast,90,2013-11-22 13:56:00
8:09 AM,64.0,63.0,96,30.25,7.0,East,5.8,-,N/A,,Overcast,100,2013-11-22 14:09:00
8:56 AM,64.9,63.0,93,30.22,8.0,East,6.9,-,N/A,,Overcast,100,2013-11-22 14:56:00
9:56 AM,66.9,64.0,90,30.21,9.0,ESE,8.1,-,N/A,,Overcast,110,2013-11-22 15:56:00
10:56 AM,70.0,64.9,84,30.19,10.0,SE,8.1,-,N/A,,Overcast,130,2013-11-22 16:56:00
11:56 AM,71.1,66.0,84,30.18,10.0,South,3.5,-,N/A,,Overcast,170,2013-11-22 17:56:00
12:56 PM,73.0,66.9,81,30.17,10.0,Calm,Calm,-,N/A,,Overcast,0,2013-11-22 18:56:00
1:56 PM,73.0,66.9,81,30.15,10.0,NNW,3.5,-,N/A,,Overcast,340,2013-11-22 19:56:00
2:56 PM,72.0,66.9,84,30.15,10.0,Calm,Calm,-,N/A,,Overcast,0,2013-11-22 20:56:00
3:56 PM,71.1,66.9,87,30.14,9.0,East,3.5,-,N/A,,Mostly Cloudy,100,2013-11-22 21:56:00
4:56 PM,69.1,66.9,93,30.14,8.0,Calm,Calm,-,N/A,,Overcast,0,2013-11-22 22:56:00
5:56 PM,68.0,66.0,93,30.11,9.0,SE,6.9,-,N/A,,Mostly Cloudy,130,2013-11-22 23:56:00
6:56 PM,66.0,64.0,93,30.11,8.0,SSE,3.5,-,N/A,,Overcast,150,2013-11-23 00:56:00
7:56 PM,66.9,64.0,90,30.13,8.0,NW,5.8,-,N/A,,Overcast,320,2013-11-23 01:56:00
8:56 PM,66.9,64.4,92,30.15,9.0,NW,3.5,-,N/A,,Overcast,320,2013-11-23 02:56:00
9:56 PM,68.0,64.0,87,30.15,8.0,Calm,Calm,-,N/A,,Overcast,0,2013-11-23 03:56:00
10:56 PM,68.0,64.0,87,30.14,8.0,Calm,Calm,-,N/A,,Overcast,0,2013-11-23 04:56:00
11:44 PM,66.0,66.0,100,30.17,7.0,Calm,Calm,-,N/A,,Overcast,0,2013-11-23 05:44:00
11:56 PM,64.9,64.9,100,30.13,6.0,Calm,Calm,-,N/A,,Overcast,0,2013-11-23 05:56:00